Kelso-Longview, WA
on Saturday, November 17, 2012

Saturday
Previous Day Next Day
Daily Summary
 ActualAverage (KSPB)Record (KSPB)
Temperature
Mean Temperature °F °F  
Max Temperature 48°F °F 61°F (2007)
Min Temperature 44°F °F 21°F (2014)
Degree Days
Heating Degree Days 19    
Month to date heating degree days  
Since 1 July heating degree days  
Cooling Degree Days 0    
Month to date cooling degree days  
Year to date cooling degree days  
Moisture
Dew Point 41°F   
Average Humidity 82    
Maximum Humidity 87    
Minimum Humidity 71    
Precipitation
Precipitation 0.40 in in 1.31 in (2010)
Month to date precipitation  
Year to date precipitation  
Wind
Wind Speed 10 mph   
Max Wind Speed 16 mph   
Max Gust Speed 24 mph   
Visibility 10 miles   
Events     

Key: T is trace of precipitation, MM is missing value
Source: NWS Daily Summary
Time(PST)TemperatureDew PointHumidity Pressure Visibility Wind DirectionWind SpeedGust SpeedPrecipitationEvents Conditions
12:15 AM 48.2°F 41.0°F 76% 29.71 in 10.0 miles SE 10.4 mph 16.1 mph N/A   Overcast
12:35 AM 48.2°F 39.2°F 71% 29.70 in 10.0 miles SSE 9.2 mph - N/A   Mostly Cloudy
12:55 AM 48.2°F 39.2°F 71% 29.69 in 10.0 miles SE 9.2 mph - N/A   Clear
1:15 AM 48.2°F 39.2°F 71% 29.68 in 10.0 miles SSE 9.2 mph - N/A   Clear
1:35 AM 48.2°F 39.2°F 71% 29.67 in 10.0 miles SSE 9.2 mph - N/A   Partly Cloudy
1:55 AM 48.2°F 39.2°F 71% 29.67 in 10.0 miles SSE 8.1 mph - N/A   Mostly Cloudy
2:15 AM 48.2°F 39.2°F 71% 29.67 in 10.0 miles SSE 11.5 mph - N/A   Mostly Cloudy
2:35 AM 48.2°F 39.2°F 71% 29.66 in 10.0 miles SE 12.7 mph 17.3 mph N/A   Overcast
2:55 AM 48.2°F 39.2°F 71% 29.66 in 10.0 miles SE 16.1 mph 19.6 mph N/A   Overcast
3:15 AM 48.2°F 39.2°F 71% 29.65 in 10.0 miles SSE 11.5 mph - N/A   Overcast
3:35 AM 48.2°F 39.2°F 71% 29.64 in 10.0 miles SSE 11.5 mph 20.7 mph N/A   Overcast
3:55 AM 48.2°F 39.2°F 71% 29.64 in 10.0 miles SSE 12.7 mph 23.0 mph N/A   Overcast
4:15 AM 48.2°F 39.2°F 71% 29.64 in 10.0 miles SE 11.5 mph 20.7 mph N/A   Overcast
4:35 AM 48.2°F 39.2°F 71% 29.64 in 10.0 miles SE 10.4 mph - N/A   Overcast
4:55 AM 46.4°F 41.0°F 81% 29.63 in 10.0 miles SE 12.7 mph 16.1 mph N/A   Overcast
5:15 AM 46.4°F 42.8°F 87% 29.62 in 10.0 miles SE 6.9 mph 17.3 mph N/A   Overcast
5:35 AM 46.4°F 42.8°F 87% 29.62 in 10.0 miles SSE 8.1 mph - N/A   Overcast
5:55 AM 46.4°F 42.8°F 87% 29.61 in 10.0 miles SE 8.1 mph - N/A   Overcast
6:15 AM 46.4°F 42.8°F 87% 29.60 in 10.0 miles SE 10.4 mph 16.1 mph N/A   Overcast
6:35 AM 46.4°F 42.8°F 87% 29.59 in 10.0 miles SE 6.9 mph - N/A   Mostly Cloudy
6:55 AM 46.4°F 42.8°F 87% 29.58 in 10.0 miles SE 9.2 mph 17.3 mph N/A   Mostly Cloudy
7:15 AM 46.4°F 42.8°F 87% 29.58 in 8.0 miles SSE 12.7 mph 19.6 mph N/A   Mostly Cloudy
7:35 AM 46.4°F 42.8°F 87% 29.58 in 9.0 miles SSE 10.4 mph 20.7 mph N/A   Mostly Cloudy
7:55 AM 46.4°F 42.8°F 87% 29.57 in 9.0 miles SSE 13.8 mph 19.6 mph N/A   Mostly Cloudy
8:15 AM 46.4°F 42.8°F 87% 29.59 in 8.0 miles SE 9.2 mph 20.7 mph N/A   Mostly Cloudy
8:35 AM 46.4°F 42.8°F 87% 29.57 in 6.0 miles SE 10.4 mph 16.1 mph N/A   Overcast
8:55 AM 46.4°F 42.8°F 87% 29.57 in 7.0 miles SE 11.5 mph 17.3 mph N/A   Overcast
9:15 AM 46.4°F 42.8°F 87% 29.55 in 7.0 miles SE 16.1 mph 19.6 mph N/A   Overcast
9:35 AM 46.4°F 42.8°F 87% 29.54 in 10.0 miles SSE 13.8 mph 20.7 mph N/A   Overcast
9:55 AM 46.4°F 42.8°F 87% 29.54 in 10.0 miles SSE 11.5 mph 17.3 mph N/A   Overcast
10:15 AM 48.2°F 44.6°F 87% 29.54 in 10.0 miles SSE 11.5 mph 16.1 mph N/A   Overcast
10:35 AM 48.2°F 44.6°F 87% 29.55 in 10.0 miles SSE 10.4 mph 20.7 mph N/A   Overcast
10:55 AM 48.2°F 44.6°F 87% 29.57 in 3.0 miles SSW 6.9 mph - 0.01 in   Overcast
11:15 AM 48.2°F 44.6°F 87% 29.59 in 7.0 miles West 4.6 mph - 0.14 in   Mostly Cloudy
11:35 AM 48.2°F 44.6°F 87% 29.59 in 10.0 miles NW 6.9 mph - 0.19 in   Overcast
11:55 AM 48.2°F 44.6°F 87% 29.60 in 5.0 miles NW 4.6 mph - 0.21 in   Overcast
12:15 PM 46.4°F 42.8°F 87% 29.60 in 10.0 miles NW 5.8 mph - 0.03 in   Mostly Cloudy
12:35 PM 46.4°F 42.8°F 87% 29.61 in 9.0 miles NW 3.5 mph - 0.06 in   Overcast
12:55 PM 46.4°F 42.8°F 87% 29.62 in 10.0 miles NNW 3.5 mph - 0.10 in   Overcast
1:15 PM 46.4°F 42.8°F 87% 29.62 in 10.0 miles Calm Calm - 0.02 in   Overcast
1:35 PM 46.4°F 42.8°F 87% 29.62 in 10.0 miles Calm Calm - 0.03 in   Overcast
1:55 PM 46.4°F 42.8°F 87% 29.62 in 10.0 miles Calm Calm - 0.04 in   Mostly Cloudy
2:15 PM 46.4°F 42.8°F 87% 29.62 in 10.0 miles SSE 5.8 mph - N/A   Overcast
2:35 PM 46.4°F 42.8°F 87% 29.63 in 10.0 miles SSE 8.1 mph - 0.01 in   Overcast
2:55 PM 46.4°F 41.0°F 81% 29.64 in 10.0 miles SE 5.8 mph - 0.01 in   Overcast
3:15 PM 46.4°F 39.2°F 76% 29.65 in 10.0 miles SE 8.1 mph - 0.01 in   Overcast
3:35 PM 46.4°F 39.2°F 76% 29.65 in 10.0 miles SSE 6.9 mph - 0.01 in   Overcast
3:55 PM 46.4°F 41.0°F 81% 29.66 in 10.0 miles SE 11.5 mph - 0.02 in   Overcast
4:15 PM 44.6°F 41.0°F 87% 29.67 in 10.0 miles SSE 11.5 mph - N/A   Overcast
4:35 PM 46.4°F 41.0°F 81% 29.68 in 10.0 miles SSE 13.8 mph 20.7 mph N/A   Overcast
4:55 PM 44.6°F 41.0°F 87% 29.69 in 10.0 miles SSE 12.7 mph 21.9 mph N/A   Overcast
5:15 PM 44.6°F 41.0°F 87% 29.69 in 10.0 miles SE 9.2 mph 17.3 mph N/A   Overcast
5:35 PM 44.6°F 41.0°F 87% 29.70 in 10.0 miles SSE 10.4 mph 18.4 mph N/A   Overcast
5:55 PM 44.6°F 39.2°F 81% 29.70 in 10.0 miles SSE 11.5 mph 19.6 mph N/A   Overcast
6:15 PM 44.6°F 39.2°F 81% 29.71 in 10.0 miles SE 11.5 mph - N/A   Overcast
6:35 PM 44.6°F 39.2°F 81% 29.70 in 10.0 miles SSE 12.7 mph 18.4 mph N/A   Mostly Cloudy
6:55 PM 44.6°F 39.2°F 81% 29.69 in 10.0 miles SSE 12.7 mph 18.4 mph N/A   Mostly Cloudy
7:15 PM 44.6°F 39.2°F 81% 29.69 in 10.0 miles SSE 12.7 mph 19.6 mph N/A   Scattered Clouds
7:35 PM 44.6°F 39.2°F 81% 29.70 in 10.0 miles SSE 12.7 mph 19.6 mph N/A   Scattered Clouds
7:55 PM 44.6°F 39.2°F 81% 29.70 in 10.0 miles SE 11.5 mph 18.4 mph N/A   Mostly Cloudy
8:15 PM 44.6°F 39.2°F 81% 29.70 in 10.0 miles SSE 12.7 mph 19.6 mph N/A   Overcast
8:35 PM 44.6°F 39.2°F 81% 29.72 in 10.0 miles SSE 15.0 mph 20.7 mph N/A   Overcast
8:55 PM 44.6°F 39.2°F 81% 29.72 in 10.0 miles SSE 15.0 mph 24.2 mph N/A   Overcast
9:15 PM 44.6°F 39.2°F 81% 29.73 in 10.0 miles SSE 16.1 mph 21.9 mph N/A   Overcast
9:35 PM 44.6°F 39.2°F 81% 29.73 in 10.0 miles SSE 11.5 mph 18.4 mph N/A   Overcast
9:55 PM 44.6°F 39.2°F 81% 29.74 in 10.0 miles SSE 13.8 mph 19.6 mph N/A   Overcast
10:15 PM 44.6°F 39.2°F 81% 29.74 in 10.0 miles SSE 12.7 mph 18.4 mph N/A   Overcast
10:35 PM 44.6°F 39.2°F 81% 29.76 in 10.0 miles SSE 12.7 mph 18.4 mph N/A   Overcast
10:55 PM 44.6°F 39.2°F 81% 29.76 in 10.0 miles SSE 10.4 mph 19.6 mph 0.01 in   Overcast
11:15 PM 44.6°F 39.2°F 81% 29.76 in 10.0 miles SSE 11.5 mph 16.1 mph N/A   Overcast
11:35 PM 44.6°F 39.2°F 81% 29.77 in 10.0 miles SSE 15.0 mph 18.4 mph N/A   Overcast
11:55 PM 44.6°F 39.2°F 81% 29.78 in 10.0 miles SE 12.7 mph 18.4 mph N/A   Overcast
Moon Phase
Nov. 17 Nov. 20 Nov. 28 Dec. 06 Dec. 13
Sunrise:07:16 AM (PST) Moon Rise:11:04 AM (PST)11/17
Sunset:04:36 PM (PST) Moon Set:08:54 PM (PST)11/17

Copyright © 2014 The Weather Underground, Inc.